Year,Month,Day,Hour,Minute,Value (Times are PST for temperature in C)
2011,09,19,00,00,14.90
2011,09,19,00,01,15.00
2011,09,19,00,02,15.00
2011,09,19,00,03,15.00
2011,09,19,00,04,15.00
2011,09,19,00,05,15.00
2011,09,19,00,06,15.00
2011,09,19,00,07,15.00
2011,09,19,00,08,15.00
2011,09,19,00,09,15.00
2011,09,19,00,10,15.00
2011,09,19,00,11,15.00
2011,09,19,00,12,15.00
2011,09,19,00,13,15.00
2011,09,19,00,14,15.00
2011,09,19,00,15,15.00
2011,09,19,00,16,15.00
2011,09,19,00,17,15.00
2011,09,19,00,18,15.00
2011,09,19,00,19,15.00
2011,09,19,00,20,15.00
2011,09,19,00,21,15.00
2011,09,19,00,22,15.00
2011,09,19,00,23,15.00
2011,09,19,00,24,15.00
2011,09,19,00,25,15.00
2011,09,19,00,26,15.00
2011,09,19,00,27,15.00
2011,09,19,00,28,15.00
2011,09,19,00,29,15.00
2011,09,19,00,30,14.90
2011,09,19,00,31,14.90
2011,09,19,00,32,14.90
2011,09,19,00,33,14.80
2011,09,19,00,34,14.80
2011,09,19,00,35,14.80
2011,09,19,00,36,14.80
2011,09,19,00,37,14.80
2011,09,19,00,38,14.80
2011,09,19,00,39,14.70
2011,09,19,00,40,14.70
2011,09,19,00,41,14.70
2011,09,19,00,42,14.70
2011,09,19,00,43,14.70
2011,09,19,00,44,14.60
2011,09,19,00,45,14.60
2011,09,19,00,46,14.60
2011,09,19,00,47,14.60
2011,09,19,00,48,14.50
2011,09,19,00,49,14.50
2011,09,19,00,50,14.50
2011,09,19,00,51,14.50
2011,09,19,00,52,14.50
2011,09,19,00,53,14.40
2011,09,19,00,54,14.40
2011,09,19,00,55,14.40
2011,09,19,00,56,14.30
2011,09,19,00,57,14.30
2011,09,19,00,58,14.30
2011,09,19,00,59,14.20
2011,09,19,01,00,14.20
2011,09,19,01,01,14.20
2011,09,19,01,02,14.20
2011,09,19,01,03,14.20
2011,09,19,01,04,14.20
2011,09,19,01,05,14.20
2011,09,19,01,06,14.20
2011,09,19,01,07,14.20
2011,09,19,01,08,14.20
2011,09,19,01,09,14.20
2011,09,19,01,10,14.20
2011,09,19,01,11,14.20
2011,09,19,01,12,14.20
2011,09,19,01,13,14.20
2011,09,19,01,14,14.20
2011,09,19,01,15,14.20
2011,09,19,01,16,14.20
2011,09,19,01,17,14.20
2011,09,19,01,18,14.20
2011,09,19,01,19,14.20
2011,09,19,01,20,14.20
2011,09,19,01,21,14.20
2011,09,19,01,22,14.20
2011,09,19,01,23,14.20
2011,09,19,01,24,14.20
2011,09,19,01,25,14.20
2011,09,19,01,26,14.20
2011,09,19,01,27,14.20
2011,09,19,01,28,14.10
2011,09,19,01,29,14.10
2011,09,19,01,30,14.10
2011,09,19,01,31,14.10
2011,09,19,01,32,14.00
2011,09,19,01,33,14.00
2011,09,19,01,34,14.00
2011,09,19,01,35,14.00
2011,09,19,01,36,13.90
2011,09,19,01,37,13.90
2011,09,19,01,38,13.90
2011,09,19,01,39,13.90
2011,09,19,01,40,13.90
2011,09,19,01,41,13.80
2011,09,19,01,42,13.80
2011,09,19,01,43,13.80
2011,09,19,01,44,13.80
2011,09,19,01,45,13.80
2011,09,19,01,46,13.80
2011,09,19,01,47,13.80
2011,09,19,01,48,13.70
2011,09,19,01,49,13.70
2011,09,19,01,50,13.70
2011,09,19,01,51,13.70
2011,09,19,01,52,13.70
2011,09,19,01,53,13.70
2011,09,19,01,54,13.70
2011,09,19,01,55,13.70
2011,09,19,01,56,13.70
2011,09,19,01,57,13.70
2011,09,19,01,58,13.70
2011,09,19,01,59,13.70
2011,09,19,02,00,13.70
2011,09,19,02,01,13.70
2011,09,19,02,02,13.70
2011,09,19,02,03,13.70
2011,09,19,02,04,13.70
2011,09,19,02,05,13.70
2011,09,19,02,06,13.70
2011,09,19,02,07,13.70
2011,09,19,02,08,13.70
2011,09,19,02,09,13.70
2011,09,19,02,10,13.70
2011,09,19,02,11,13.70
2011,09,19,02,12,13.60
2011,09,19,02,13,13.60
2011,09,19,02,14,13.60
2011,09,19,02,15,13.60
2011,09,19,02,16,13.60
2011,09,19,02,17,13.60
2011,09,19,02,18,13.50
2011,09,19,02,19,13.50
2011,09,19,02,20,13.50
2011,09,19,02,21,13.50
2011,09,19,02,22,13.50
2011,09,19,02,23,13.50
2011,09,19,02,24,13.50
2011,09,19,02,25,13.50
2011,09,19,02,26,13.50
2011,09,19,02,27,13.50
2011,09,19,02,28,13.50
2011,09,19,02,29,13.50
2011,09,19,02,30,13.50
2011,09,19,02,31,13.50
2011,09,19,02,32,13.50
2011,09,19,02,33,13.50
2011,09,19,02,34,13.50
2011,09,19,02,35,13.50
2011,09,19,02,36,13.50
2011,09,19,02,37,13.50
2011,09,19,02,38,13.50
2011,09,19,02,39,13.50
2011,09,19,02,40,13.50
2011,09,19,02,41,13.50
2011,09,19,02,42,13.40
2011,09,19,02,43,13.40
2011,09,19,02,44,13.40
2011,09,19,02,45,13.40
2011,09,19,02,46,13.40
2011,09,19,02,47,13.30
2011,09,19,02,48,13.30
2011,09,19,02,49,13.30
2011,09,19,02,50,13.30
2011,09,19,02,51,13.30
2011,09,19,02,52,13.30
2011,09,19,02,53,13.30
2011,09,19,02,54,13.30
2011,09,19,02,55,13.30
2011,09,19,02,56,13.30
2011,09,19,02,57,13.30
2011,09,19,02,58,13.30
2011,09,19,02,59,13.30
2011,09,19,03,00,13.30
2011,09,19,03,01,13.30
2011,09,19,03,02,13.30
2011,09,19,03,03,13.30
2011,09,19,03,04,13.30
2011,09,19,03,05,13.30
2011,09,19,03,06,13.30
2011,09,19,03,07,13.30
2011,09,19,03,08,13.30
2011,09,19,03,09,13.30
2011,09,19,03,10,13.30
2011,09,19,03,11,13.30
2011,09,19,03,12,13.20
2011,09,19,03,13,13.20
2011,09,19,03,14,13.20
2011,09,19,03,15,13.20
2011,09,19,03,16,13.20
2011,09,19,03,17,13.20
2011,09,19,03,18,13.20
2011,09,19,03,19,13.20
2011,09,19,03,20,13.20
2011,09,19,03,21,13.20
2011,09,19,03,22,13.20
2011,09,19,03,23,13.20
2011,09,19,03,24,13.20
2011,09,19,03,25,13.20
2011,09,19,03,26,13.20
2011,09,19,03,27,13.10
2011,09,19,03,28,13.10
2011,09,19,03,29,13.10
2011,09,19,03,30,13.10
2011,09,19,03,31,13.10
2011,09,19,03,32,13.10
2011,09,19,03,33,13.10
2011,09,19,03,34,13.10
2011,09,19,03,35,13.00
2011,09,19,03,36,13.00
2011,09,19,03,37,13.00
2011,09,19,03,38,13.00
2011,09,19,03,39,13.00
2011,09,19,03,40,13.00
2011,09,19,03,41,13.00
2011,09,19,03,42,13.00
2011,09,19,03,43,13.00
2011,09,19,03,44,12.90
2011,09,19,03,45,12.90
2011,09,19,03,46,12.90
2011,09,19,03,47,12.90
2011,09,19,03,48,12.90
2011,09,19,03,49,12.90
2011,09,19,03,50,12.90
2011,09,19,03,51,12.90
2011,09,19,03,52,12.90
2011,09,19,03,53,12.90
2011,09,19,03,54,12.90
2011,09,19,03,55,12.90
2011,09,19,03,56,12.90
2011,09,19,03,57,12.90
2011,09,19,03,58,12.90
2011,09,19,03,59,12.80
2011,09,19,04,00,12.80
2011,09,19,04,01,12.80
2011,09,19,04,02,12.80
2011,09,19,04,03,12.80
2011,09,19,04,04,12.80
2011,09,19,04,05,12.80
2011,09,19,04,06,12.80
2011,09,19,04,07,12.80
2011,09,19,04,08,12.80
2011,09,19,04,09,12.80
2011,09,19,04,10,12.80
2011,09,19,04,11,12.80
2011,09,19,04,12,12.80
2011,09,19,04,13,12.80
2011,09,19,04,14,12.80
2011,09,19,04,15,12.80
2011,09,19,04,16,12.80
2011,09,19,04,17,12.80
2011,09,19,04,18,12.80
2011,09,19,04,19,12.80
2011,09,19,04,20,12.80
2011,09,19,04,21,12.80
2011,09,19,04,22,12.80
2011,09,19,04,23,12.80
2011,09,19,04,24,12.70
2011,09,19,04,25,12.70
2011,09,19,04,26,12.70
2011,09,19,04,27,12.80
2011,09,19,04,28,12.70
2011,09,19,04,29,12.80
2011,09,19,04,30,12.80
2011,09,19,04,31,12.80
2011,09,19,04,32,12.80
2011,09,19,04,33,12.80
2011,09,19,04,34,12.80
2011,09,19,04,35,12.80
2011,09,19,04,36,12.80
2011,09,19,04,37,12.80
2011,09,19,04,38,12.80
2011,09,19,04,39,12.80
2011,09,19,04,40,12.80
2011,09,19,04,41,12.70
2011,09,19,04,42,12.70
2011,09,19,04,43,12.70
2011,09,19,04,44,12.70
2011,09,19,04,45,12.70
2011,09,19,04,46,12.70
2011,09,19,04,47,12.70
2011,09,19,04,48,12.70
2011,09,19,04,49,12.70
2011,09,19,04,50,12.70
2011,09,19,04,51,12.60
2011,09,19,04,52,12.60
2011,09,19,04,53,12.60
2011,09,19,04,54,12.60
2011,09,19,04,55,12.60
2011,09,19,04,56,12.60
2011,09,19,04,57,12.60
2011,09,19,04,58,12.60
2011,09,19,04,59,12.60
2011,09,19,05,00,12.60
2011,09,19,05,01,12.60
2011,09,19,05,02,12.60
2011,09,19,05,03,12.60
2011,09,19,05,04,12.60
2011,09,19,05,05,12.60
2011,09,19,05,06,12.60
2011,09,19,05,07,12.60
2011,09,19,05,08,12.60
2011,09,19,05,09,12.60
2011,09,19,05,10,12.60
2011,09,19,05,11,12.60
2011,09,19,05,12,12.60
2011,09,19,05,13,12.60
2011,09,19,05,14,12.60
2011,09,19,05,15,12.60
2011,09,19,05,16,12.60
2011,09,19,05,17,12.60
2011,09,19,05,18,12.60
2011,09,19,05,19,12.60
2011,09,19,05,20,12.60
2011,09,19,05,21,12.60
2011,09,19,05,22,12.60
2011,09,19,05,23,12.60
2011,09,19,05,24,12.60
2011,09,19,05,25,12.60
2011,09,19,05,26,12.50
2011,09,19,05,27,12.50
2011,09,19,05,28,12.50
2011,09,19,05,29,12.50
2011,09,19,05,30,12.50
2011,09,19,05,31,12.50
2011,09,19,05,32,12.50
2011,09,19,05,33,12.40
2011,09,19,05,34,12.40
2011,09,19,05,35,12.40
2011,09,19,05,36,12.40
2011,09,19,05,37,12.40
2011,09,19,05,38,12.30
2011,09,19,05,39,12.30
2011,09,19,05,40,12.30
2011,09,19,05,41,12.30
2011,09,19,05,42,12.30
2011,09,19,05,43,12.30
2011,09,19,05,44,12.30
2011,09,19,05,45,12.30
2011,09,19,05,46,12.30
2011,09,19,05,47,12.30
2011,09,19,05,48,12.20
2011,09,19,05,49,12.20
2011,09,19,05,50,12.20
2011,09,19,05,51,12.20
2011,09,19,05,52,12.20
2011,09,19,05,53,12.20
2011,09,19,05,54,12.20
2011,09,19,05,55,12.20
2011,09,19,05,56,12.20
2011,09,19,05,57,12.20
2011,09,19,05,58,12.20
2011,09,19,05,59,12.20
2011,09,19,06,00,12.20
2011,09,19,06,01,12.10
2011,09,19,06,02,12.10
2011,09,19,06,03,12.10
2011,09,19,06,04,12.10
2011,09,19,06,05,12.10
2011,09,19,06,06,12.10
2011,09,19,06,07,12.10
2011,09,19,06,08,12.10
2011,09,19,06,09,12.10
2011,09,19,06,10,12.10
2011,09,19,06,11,12.10
2011,09,19,06,12,12.00
2011,09,19,06,13,12.00
2011,09,19,06,14,12.00
2011,09,19,06,15,12.00
2011,09,19,06,16,12.00
2011,09,19,06,17,12.00
2011,09,19,06,18,11.90
2011,09,19,06,19,11.90
2011,09,19,06,20,11.90
2011,09,19,06,21,11.90
2011,09,19,06,22,11.90
2011,09,19,06,23,11.90
2011,09,19,06,24,11.90
2011,09,19,06,25,11.90
2011,09,19,06,26,11.90
2011,09,19,06,27,11.90
2011,09,19,06,28,11.90
2011,09,19,06,29,11.90
2011,09,19,06,30,11.90
2011,09,19,06,31,11.90
2011,09,19,06,32,11.90
2011,09,19,06,33,11.90
2011,09,19,06,34,11.90
2011,09,19,06,35,11.90
2011,09,19,06,36,11.90
2011,09,19,06,37,11.80
2011,09,19,06,38,11.80
2011,09,19,06,39,11.80
2011,09,19,06,40,11.80
2011,09,19,06,41,11.80
2011,09,19,06,42,11.80
2011,09,19,06,43,11.80
2011,09,19,06,44,11.80
2011,09,19,06,45,11.80
2011,09,19,06,46,11.80
2011,09,19,06,47,11.80
2011,09,19,06,48,11.80
2011,09,19,06,49,11.80
2011,09,19,06,50,11.80
2011,09,19,06,51,11.80
2011,09,19,06,52,11.80
2011,09,19,06,53,11.70
2011,09,19,06,54,11.70
2011,09,19,06,55,11.70
2011,09,19,06,56,11.70
2011,09,19,06,57,11.60
2011,09,19,06,58,11.60
2011,09,19,06,59,11.60
2011,09,19,07,00,11.60
2011,09,19,07,01,11.60
2011,09,19,07,02,11.60
2011,09,19,07,03,11.60
2011,09,19,07,04,11.50
2011,09,19,07,05,11.40
2011,09,19,07,06,11.40
2011,09,19,07,07,11.40
2011,09,19,07,08,11.40
2011,09,19,07,09,11.40
2011,09,19,07,10,11.40
2011,09,19,07,11,11.40
2011,09,19,07,12,11.30
2011,09,19,07,13,11.30
2011,09,19,07,14,11.30
2011,09,19,07,15,11.30
2011,09,19,07,16,11.20
2011,09,19,07,17,11.20
2011,09,19,07,18,11.20
2011,09,19,07,19,11.20
2011,09,19,07,20,11.20
2011,09,19,07,21,11.20
2011,09,19,07,22,11.20
2011,09,19,07,23,11.10
2011,09,19,07,24,11.10
2011,09,19,07,25,11.10
2011,09,19,07,26,11.10
2011,09,19,07,27,11.10
2011,09,19,07,28,11.10
2011,09,19,07,29,11.10
2011,09,19,07,30,11.10
2011,09,19,07,31,11.10
2011,09,19,07,32,11.10
2011,09,19,07,33,11.10
2011,09,19,07,34,11.10
2011,09,19,07,35,11.10
2011,09,19,07,36,11.10
2011,09,19,07,37,11.10
2011,09,19,07,38,11.10
2011,09,19,07,39,11.10
2011,09,19,07,40,11.10
2011,09,19,07,41,11.10
2011,09,19,07,42,11.10
2011,09,19,07,43,11.10
2011,09,19,07,44,11.10
2011,09,19,07,45,11.20
2011,09,19,07,46,11.20
2011,09,19,07,47,11.20
2011,09,19,07,48,11.30
2011,09,19,07,49,11.30
2011,09,19,07,50,11.30
2011,09,19,07,51,11.30
2011,09,19,07,52,11.40
2011,09,19,07,53,11.40
2011,09,19,07,54,11.40
2011,09,19,07,55,11.40
2011,09,19,07,56,11.60
2011,09,19,07,57,11.60
2011,09,19,07,58,11.60
2011,09,19,07,59,11.60
2011,09,19,08,00,11.70
2011,09,19,08,01,11.70
2011,09,19,08,02,11.80
2011,09,19,08,03,11.80
2011,09,19,08,04,11.80
2011,09,19,08,05,11.90
2011,09,19,08,06,11.90
2011,09,19,08,07,11.90
2011,09,19,08,08,11.90
2011,09,19,08,09,12.00
2011,09,19,08,10,12.00
2011,09,19,08,11,12.00
2011,09,19,08,12,12.10
2011,09,19,08,13,12.10
2011,09,19,08,14,12.20
2011,09,19,08,15,12.30
2011,09,19,08,16,12.30
2011,09,19,08,17,12.30
2011,09,19,08,18,12.40
2011,09,19,08,19,12.40
2011,09,19,08,20,12.40
2011,09,19,08,21,12.40
2011,09,19,08,22,12.40
2011,09,19,08,23,12.40
2011,09,19,08,24,12.50
2011,09,19,08,25,12.50
2011,09,19,08,26,12.60
2011,09,19,08,27,12.60
2011,09,19,08,28,12.70
2011,09,19,08,29,12.70
2011,09,19,08,30,12.80
2011,09,19,08,31,12.80
2011,09,19,08,32,12.80
2011,09,19,08,33,12.80
2011,09,19,08,34,12.80
2011,09,19,08,35,12.80
2011,09,19,08,36,12.80
2011,09,19,08,37,12.90
2011,09,19,08,38,12.90
2011,09,19,08,39,13.00
2011,09,19,08,40,13.00
2011,09,19,08,41,13.10
2011,09,19,08,42,13.10
2011,09,19,08,43,13.10
2011,09,19,08,44,13.10
2011,09,19,08,45,13.10
2011,09,19,08,46,13.10
2011,09,19,08,47,13.10
2011,09,19,08,48,13.10
2011,09,19,08,49,13.10
2011,09,19,08,50,13.20
2011,09,19,08,51,13.20
2011,09,19,08,52,13.30
2011,09,19,08,53,13.30
2011,09,19,08,54,13.30
2011,09,19,08,55,13.30
2011,09,19,08,56,13.30
2011,09,19,08,57,13.40
2011,09,19,08,58,13.50
2011,09,19,08,59,13.60
2011,09,19,09,00,13.70
2011,09,19,09,01,13.70
2011,09,19,09,02,13.70
2011,09,19,09,03,13.80
2011,09,19,09,04,13.80
2011,09,19,09,05,13.90
2011,09,19,09,06,14.00
2011,09,19,09,07,14.00
2011,09,19,09,08,14.10
2011,09,19,09,09,14.20
2011,09,19,09,10,14.20
2011,09,19,09,11,14.30
2011,09,19,09,12,14.50
2011,09,19,09,13,14.60
2011,09,19,09,14,14.70
2011,09,19,09,15,14.80
2011,09,19,09,16,14.90
2011,09,19,09,17,14.90
2011,09,19,09,18,15.00
2011,09,19,09,19,15.00
2011,09,19,09,20,15.10
2011,09,19,09,21,15.10
2011,09,19,09,22,15.20
2011,09,19,09,23,15.20
2011,09,19,09,24,15.30
2011,09,19,09,25,15.30
2011,09,19,09,26,15.30
2011,09,19,09,27,15.30
2011,09,19,09,28,15.40
2011,09,19,09,29,15.40
2011,09,19,09,30,15.40
2011,09,19,09,31,15.50
2011,09,19,09,32,15.50
2011,09,19,09,33,15.50
2011,09,19,09,34,15.60
2011,09,19,09,35,15.60
2011,09,19,09,36,15.60
2011,09,19,09,37,15.60
2011,09,19,09,38,15.70
2011,09,19,09,39,15.80
2011,09,19,09,40,15.80
2011,09,19,09,41,15.80
2011,09,19,09,42,15.80
2011,09,19,09,43,15.90
2011,09,19,09,44,15.90
2011,09,19,09,45,16.00
2011,09,19,09,46,16.10
2011,09,19,09,47,16.10
2011,09,19,09,48,16.10
2011,09,19,09,49,16.10
2011,09,19,09,50,16.10
2011,09,19,09,51,16.10
2011,09,19,09,52,16.10
2011,09,19,09,53,16.20
2011,09,19,09,54,16.20
2011,09,19,09,55,16.20
2011,09,19,09,56,16.20
2011,09,19,09,57,16.20
2011,09,19,09,58,16.30
2011,09,19,09,59,16.30
2011,09,19,10,00,16.40
2011,09,19,10,01,16.40
2011,09,19,10,02,16.40
2011,09,19,10,03,16.50
2011,09,19,10,04,16.60
2011,09,19,10,05,16.60
2011,09,19,10,06,16.60
2011,09,19,10,07,16.60
2011,09,19,10,08,16.70
2011,09,19,10,09,16.70
2011,09,19,10,10,16.70
2011,09,19,10,11,16.70
2011,09,19,10,12,16.80
2011,09,19,10,13,16.80
2011,09,19,10,14,16.80
2011,09,19,10,15,16.80
2011,09,19,10,16,16.70
2011,09,19,10,17,16.70
2011,09,19,10,18,16.60
2011,09,19,10,19,16.50
2011,09,19,10,20,16.40
2011,09,19,10,21,16.40
2011,09,19,10,22,16.30
2011,09,19,10,23,16.30
2011,09,19,10,24,16.30
2011,09,19,10,25,16.30
2011,09,19,10,26,16.30
2011,09,19,10,27,16.30
2011,09,19,10,28,16.30
2011,09,19,10,29,16.30
2011,09,19,10,30,16.40
2011,09,19,10,31,16.40
2011,09,19,10,32,16.60
2011,09,19,10,33,16.70
2011,09,19,10,34,16.70
2011,09,19,10,35,16.80
2011,09,19,10,36,16.90
2011,09,19,10,37,16.90
2011,09,19,10,38,17.00
2011,09,19,10,39,17.00
2011,09,19,10,40,17.00
2011,09,19,10,41,17.10
2011,09,19,10,42,17.20
2011,09,19,10,43,17.20
2011,09,19,10,44,17.30
2011,09,19,10,45,17.30
2011,09,19,10,46,17.30
2011,09,19,10,47,17.30
2011,09,19,10,48,17.40
2011,09,19,10,49,17.50
2011,09,19,10,50,17.60
2011,09,19,10,51,17.60
2011,09,19,10,52,17.70
2011,09,19,10,53,17.80
2011,09,19,10,54,17.90
2011,09,19,10,55,18.00
2011,09,19,10,56,18.10
2011,09,19,10,57,18.20
2011,09,19,10,58,18.20
2011,09,19,10,59,18.20
2011,09,19,11,00,18.10
2011,09,19,11,01,18.10
2011,09,19,11,02,18.00
2011,09,19,11,03,18.10
2011,09,19,11,04,18.10
2011,09,19,11,05,18.20
2011,09,19,11,06,18.10
2011,09,19,11,07,18.10
2011,09,19,11,08,18.00
2011,09,19,11,09,17.90
2011,09,19,11,10,17.80
2011,09,19,11,11,17.80
2011,09,19,11,12,17.80
2011,09,19,11,13,17.80
2011,09,19,11,14,17.80
2011,09,19,11,15,17.70
2011,09,19,11,16,17.60
2011,09,19,11,17,17.50
2011,09,19,11,18,17.50
2011,09,19,11,19,17.40
2011,09,19,11,20,17.40
2011,09,19,11,21,17.40
2011,09,19,11,22,17.50
2011,09,19,11,23,17.60
2011,09,19,11,24,17.70
2011,09,19,11,25,17.70
2011,09,19,11,26,17.80
2011,09,19,11,27,17.70
2011,09,19,11,28,17.60
2011,09,19,11,29,17.60
2011,09,19,11,30,17.60
2011,09,19,11,31,17.60
2011,09,19,11,32,17.70
2011,09,19,11,33,17.70
2011,09,19,11,34,17.80
2011,09,19,11,35,17.80
2011,09,19,11,36,17.80
2011,09,19,11,37,17.80
2011,09,19,11,38,17.80
2011,09,19,11,39,17.80
2011,09,19,11,40,17.90
2011,09,19,11,41,17.90
2011,09,19,11,42,17.90
2011,09,19,11,43,17.90
2011,09,19,11,44,17.80
2011,09,19,11,45,17.90
2011,09,19,11,46,17.90
2011,09,19,11,47,17.90
2011,09,19,11,48,18.00
2011,09,19,11,49,18.10
2011,09,19,11,50,18.20
2011,09,19,11,51,18.10
2011,09,19,11,52,18.00
2011,09,19,11,53,17.90
2011,09,19,11,54,17.90
2011,09,19,11,55,17.80
2011,09,19,11,56,17.80
2011,09,19,11,57,17.70
2011,09,19,11,58,17.80
2011,09,19,11,59,17.80
2011,09,19,12,00,17.80
2011,09,19,12,01,17.80
2011,09,19,12,02,17.80
2011,09,19,12,03,17.90
2011,09,19,12,04,17.90
2011,09,19,12,05,18.00
2011,09,19,12,06,18.10
2011,09,19,12,07,18.10
2011,09,19,12,08,18.10
2011,09,19,12,09,18.20
2011,09,19,12,10,18.20
2011,09,19,12,11,18.10
2011,09,19,12,12,18.00
2011,09,19,12,13,17.90
2011,09,19,12,14,17.70
2011,09,19,12,15,17.60
2011,09,19,12,16,17.50
2011,09,19,12,17,17.40
2011,09,19,12,18,17.50
2011,09,19,12,19,17.50
2011,09,19,12,20,17.50
2011,09,19,12,21,17.60
2011,09,19,12,22,17.60
2011,09,19,12,23,17.70
2011,09,19,12,24,17.70
2011,09,19,12,25,17.70
2011,09,19,12,26,17.60
2011,09,19,12,27,17.70
2011,09,19,12,28,17.70
2011,09,19,12,29,17.70
2011,09,19,12,30,17.60
2011,09,19,12,31,17.70
2011,09,19,12,32,17.70
2011,09,19,12,33,17.70
2011,09,19,12,34,17.80
2011,09,19,12,35,17.90
2011,09,19,12,36,17.90
2011,09,19,12,37,17.90
2011,09,19,12,38,17.90
2011,09,19,12,39,17.90
2011,09,19,12,40,17.90
2011,09,19,12,41,18.00
2011,09,19,12,42,18.10
2011,09,19,12,43,18.10
2011,09,19,12,44,18.10
2011,09,19,12,45,18.20
2011,09,19,12,46,18.20
2011,09,19,12,47,18.30
2011,09,19,12,48,18.30
2011,09,19,12,49,18.30
2011,09,19,12,50,18.30
2011,09,19,12,51,18.40
2011,09,19,12,52,18.40
2011,09,19,12,53,18.50
2011,09,19,12,54,18.50
2011,09,19,12,55,18.40
2011,09,19,12,56,18.30
2011,09,19,12,57,18.20
2011,09,19,12,58,18.10
2011,09,19,12,59,18.10
2011,09,19,13,00,18.00
2011,09,19,13,01,18.00
2011,09,19,13,02,18.10
2011,09,19,13,03,18.20
2011,09,19,13,04,18.20
2011,09,19,13,05,18.20
2011,09,19,13,06,18.20
2011,09,19,13,07,18.20
2011,09,19,13,08,18.10
2011,09,19,13,09,18.00
2011,09,19,13,10,17.90
2011,09,19,13,11,17.90
2011,09,19,13,12,17.90
2011,09,19,13,13,18.00
2011,09,19,13,14,18.10
2011,09,19,13,15,18.10
2011,09,19,13,16,18.10
2011,09,19,13,17,18.20
2011,09,19,13,18,18.20
2011,09,19,13,19,18.20
2011,09,19,13,20,18.20
2011,09,19,13,21,18.20
2011,09,19,13,22,18.20
2011,09,19,13,23,18.20
2011,09,19,13,24,18.10
2011,09,19,13,25,18.00
2011,09,19,13,26,18.00
2011,09,19,13,27,18.10
2011,09,19,13,28,18.10
2011,09,19,13,29,18.10
2011,09,19,13,30,18.10
2011,09,19,13,31,18.10
2011,09,19,13,32,18.10
2011,09,19,13,33,18.10
2011,09,19,13,34,18.10
2011,09,19,13,35,18.10
2011,09,19,13,36,18.10
2011,09,19,13,37,18.10
2011,09,19,13,38,18.20
2011,09,19,13,39,18.20
2011,09,19,13,40,18.20
2011,09,19,13,41,18.20
2011,09,19,13,42,18.20
2011,09,19,13,43,18.20
2011,09,19,13,44,18.30
2011,09,19,13,45,18.20
2011,09,19,13,46,18.30
2011,09,19,13,47,18.30
2011,09,19,13,48,18.30
2011,09,19,13,49,18.40
2011,09,19,13,50,18.50
2011,09,19,13,51,18.40
2011,09,19,13,52,18.30
2011,09,19,13,53,18.30
2011,09,19,13,54,18.30
2011,09,19,13,55,18.30
2011,09,19,13,56,18.30
2011,09,19,13,57,18.30
2011,09,19,13,58,18.30
2011,09,19,13,59,18.30
2011,09,19,14,00,18.20
2011,09,19,14,01,18.30
2011,09,19,14,02,18.40
2011,09,19,14,03,18.50
2011,09,19,14,04,18.60
2011,09,19,14,05,18.60
2011,09,19,14,06,18.70
2011,09,19,14,07,18.80
2011,09,19,14,08,18.90
2011,09,19,14,09,19.00
2011,09,19,14,10,19.10
2011,09,19,14,11,19.10
2011,09,19,14,12,19.10
2011,09,19,14,13,19.10
2011,09,19,14,14,19.10
2011,09,19,14,15,19.10
2011,09,19,14,16,19.10
2011,09,19,14,17,19.10
2011,09,19,14,18,19.00
2011,09,19,14,19,18.90
2011,09,19,14,20,18.90
2011,09,19,14,21,18.90
2011,09,19,14,22,18.90
2011,09,19,14,23,18.90
2011,09,19,14,24,18.90
2011,09,19,14,25,18.90
2011,09,19,14,26,18.90
2011,09,19,14,27,18.90
2011,09,19,14,28,18.90
2011,09,19,14,29,18.80
2011,09,19,14,30,18.70
2011,09,19,14,31,18.70
2011,09,19,14,32,18.70
2011,09,19,14,33,18.70
2011,09,19,14,34,18.60
2011,09,19,14,35,18.50
2011,09,19,14,36,18.50
2011,09,19,14,37,18.40
2011,09,19,14,38,18.40
2011,09,19,14,39,18.40
2011,09,19,14,40,18.40
2011,09,19,14,41,18.40
2011,09,19,14,42,18.50
2011,09,19,14,43,18.60
2011,09,19,14,44,18.60
2011,09,19,14,45,18.80
2011,09,19,14,46,18.80
2011,09,19,14,47,18.80
2011,09,19,14,48,18.80
2011,09,19,14,49,18.80
2011,09,19,14,50,18.80
2011,09,19,14,51,18.90
2011,09,19,14,52,18.90
2011,09,19,14,53,18.70
2011,09,19,14,54,18.50
2011,09,19,14,55,18.40
2011,09,19,14,56,18.20
2011,09,19,14,57,18.10
2011,09,19,14,58,18.10
2011,09,19,14,59,18.10
2011,09,19,15,00,18.00
2011,09,19,15,01,18.10
2011,09,19,15,02,18.10
2011,09,19,15,03,18.10
2011,09,19,15,04,18.10
2011,09,19,15,05,18.10
2011,09,19,15,06,18.00
2011,09,19,15,07,17.90
2011,09,19,15,08,17.90
2011,09,19,15,09,17.90
2011,09,19,15,10,17.80
2011,09,19,15,11,17.80
2011,09,19,15,12,17.90
2011,09,19,15,13,18.00
2011,09,19,15,14,18.10
2011,09,19,15,15,18.10
2011,09,19,15,16,18.10
2011,09,19,15,17,18.00
2011,09,19,15,18,17.90
2011,09,19,15,19,17.90
2011,09,19,15,20,17.80
2011,09,19,15,21,17.80
2011,09,19,15,22,17.70
2011,09,19,15,23,17.60
2011,09,19,15,24,17.50
2011,09,19,15,25,17.50
2011,09,19,15,26,17.50
2011,09,19,15,27,17.50
2011,09,19,15,28,17.50
2011,09,19,15,29,17.50
2011,09,19,15,30,17.40
2011,09,19,15,31,17.40
2011,09,19,15,32,17.40
2011,09,19,15,33,17.30
2011,09,19,15,34,17.30
2011,09,19,15,35,17.30
2011,09,19,15,36,17.20
2011,09,19,15,37,17.20
2011,09,19,15,38,17.30
2011,09,19,15,39,17.40
2011,09,19,15,40,17.50
2011,09,19,15,41,17.50
2011,09,19,15,42,17.50
2011,09,19,15,43,17.60
2011,09,19,15,44,17.70
2011,09,19,15,45,17.70
2011,09,19,15,46,17.80
2011,09,19,15,47,17.90
2011,09,19,15,48,17.90
2011,09,19,15,49,17.90
2011,09,19,15,50,18.00
2011,09,19,15,51,18.10
2011,09,19,15,52,18.20
2011,09,19,15,53,18.30
2011,09,19,15,54,18.40
2011,09,19,15,55,18.40
2011,09,19,15,56,18.40
2011,09,19,15,57,18.40
2011,09,19,15,58,18.40
2011,09,19,15,59,18.40
2011,09,19,16,00,18.40
2011,09,19,16,01,18.40
2011,09,19,16,02,18.40
2011,09,19,16,03,18.40
2011,09,19,16,04,18.40
2011,09,19,16,05,18.50
2011,09,19,16,06,18.50
2011,09,19,16,07,18.50
2011,09,19,16,08,18.50
2011,09,19,16,09,18.60
2011,09,19,16,10,18.60
2011,09,19,16,11,18.60
2011,09,19,16,12,18.70
2011,09,19,16,13,18.70
2011,09,19,16,14,18.70
2011,09,19,16,15,18.70
2011,09,19,16,16,18.80
2011,09,19,16,17,18.80
2011,09,19,16,18,18.80
2011,09,19,16,19,18.90
2011,09,19,16,20,18.90
2011,09,19,16,21,18.90
2011,09,19,16,22,18.80
2011,09,19,16,23,18.70
2011,09,19,16,24,18.60
2011,09,19,16,25,18.60
2011,09,19,16,26,18.60
2011,09,19,16,27,18.60
2011,09,19,16,28,18.60
2011,09,19,16,29,18.70
2011,09,19,16,30,18.70
2011,09,19,16,31,18.80
2011,09,19,16,32,18.80
2011,09,19,16,33,18.80
2011,09,19,16,34,18.80
2011,09,19,16,35,18.90
2011,09,19,16,36,18.90
2011,09,19,16,37,18.90
2011,09,19,16,38,18.90
2011,09,19,16,39,18.90
2011,09,19,16,40,18.80
2011,09,19,16,41,18.80
2011,09,19,16,42,18.80
2011,09,19,16,43,18.90
2011,09,19,16,44,18.90
2011,09,19,16,45,18.80
2011,09,19,16,46,18.70
2011,09,19,16,47,18.70
2011,09,19,16,48,18.70
2011,09,19,16,49,18.70
2011,09,19,16,50,18.70
2011,09,19,16,51,18.60
2011,09,19,16,52,18.60
2011,09,19,16,53,18.60
2011,09,19,16,54,18.60
2011,09,19,16,55,18.60
2011,09,19,16,56,18.60
2011,09,19,16,57,18.60
2011,09,19,16,58,18.60
2011,09,19,16,59,18.50
2011,09,19,17,00,18.50
2011,09,19,17,01,18.40
2011,09,19,17,02,18.20
2011,09,19,17,03,18.10
2011,09,19,17,04,17.90
2011,09,19,17,05,17.80
2011,09,19,17,06,17.60
2011,09,19,17,07,17.50
2011,09,19,17,08,17.40
2011,09,19,17,09,17.30
2011,09,19,17,10,17.10
2011,09,19,17,11,17.00
2011,09,19,17,12,16.90
2011,09,19,17,13,16.90
2011,09,19,17,14,16.90
2011,09,19,17,15,16.90
2011,09,19,17,16,16.90
2011,09,19,17,17,16.90
2011,09,19,17,18,17.00
2011,09,19,17,19,17.10